Regional Weather Roundup
Issued by NWS

Home | Current Version | Previous Version | Graphics & Text | Print | Product List | Glossary On
Versions: 1 2 3 4 5 6 7 8 9 10 11 12 13 14 15 16 17 18 19 20 21 22 23 24 25 26 27 28 29 30 31 32 33 34 35 36 37 38 39 40 41 42 43 44 45 46 47 48 49 50
000
ASUS45 KPSR 271300
RWRAZ

ARIZONA REGIONAL HOURLY WEATHER ROUNDUP
NATIONAL WEATHER SERVICE PHOENIX AZ
600 AM MST FRI MAR 27 2015

NOTE: FAIR INDICATES FEW OR NO CLOUDS BELOW 12,000 FEET WITH NO
SIGNIFICANT WEATHER AND/OR OBSTRUCTIONS TO VISIBILITY.

AZZ001>003-036-271400-
NORTHWEST ARIZONA

CITY           SKY/WX    TMP DP  RH WIND       PRES   REMARKS
KINGMAN        CLEAR     42  25  50 E5        30.20S
$$

AZZ004>008-015-016-018-271400-
NORTH CENTRAL ARIZONA

CITY           SKY/WX    TMP DP  RH WIND       PRES   REMARKS
GRAND CANYON   PTCLDY    23  17  78 CALM      30.36S
WILLIAMS       PTCLDY    30  18  59 S9        30.41S WCI  22
PRESCOTT       PTCLDY    39  21  48 SW3       30.29R
FLAGSTAFF      NOT AVBL
PAYSON         PTCLDY    46  16  29 N3        30.29R
PAGE           PTCLDY    48  22  35 W5        30.27S
$$

AZZ009>014-017-271400-
NORTHEAST ARIZONA

CITY           SKY/WX    TMP DP  RH WIND       PRES   REMARKS
WINSLOW        NOT AVBL
SAINT JOHNS    CLOUDY    37  15  40 S3        30.33R
WINDOW ROCK    PTCLDY    24  12  60 SW5       30.36R WCI  18
SHOW LOW       PTCLDY    28  10  47 CALM      30.37S
$$

AZZ023-271400-
GREATER PHOENIX AREA

CITY           SKY/WX    TMP DP  RH WIND       PRES   REMARKS
PHOENIX        CLEAR     66  29  24 E6        30.07R
GLENDALE       CLEAR     57  36  44 CALM      30.09
DEER VALLEY    CLEAR     62  27  26 N3        30.08R
SCOTTSDALE     CLEAR     60  33  36 CALM      30.09R
MESA-FALCON    CLEAR     63  27  25 E7        30.09
MESA-GATEWAY   CLEAR     54  30  40 SE6       30.10R
CHANDLER       CLEAR     55  34  44 VRB5      30.09
$$

AZZ027-028-271400-
SOUTHWEST MARICOPA COUNTY AND PINAL COUNTY

CITY           SKY/WX    TMP DP  RH WIND       PRES   REMARKS
CASA GRANDE    CLEAR     50  27  40 CALM      30.08R
GILA BEND      FAIR      55  22  28 E2        30.06R
$$

AZZ503-504-507>509-271400-
SOUTHEAST ARIZONA

CITY           SKY/WX    TMP DP  RH WIND       PRES   REMARKS
TUCSON         CLEAR     54  25  32 SE10      30.17R
RYAN FIELD       N/A     52  30  43 SE8       30.16
NOGALES        CLEAR     47  25  42 E3        30.19S
SAFFORD        CLEAR     48  23  37 W3        30.20R
$$

AZZ020-021-025-026-031-271400-
SOUTHWEST ARIZONA

CITY           SKY/WX    TMP DP  RH WIND       PRES   REMARKS
YUMA           NOT AVBL
$$

CAZ031-033-041-043-047-048-061-271400-
SOUTHERN CALIFORNIA

CITY           SKY/WX    TMP DP  RH WIND       PRES   REMARKS
DOWNTOWN L.A.  CLEAR     63  45  51 CALM      30.03R
L.A. AIRPORT   CLEAR     60  48  64 E3        30.04S
SAN DIEGO      CLEAR     63  45  51 CALM      30.06R
BURBANK        CLEAR     62  38  40 CALM      30.05S
ONTARIO        CLEAR     64  33  31 NE5       30.06S
RIVERSIDE      CLEAR     60  38  43 E3        30.07R
PALM SPRINGS   CLEAR     70  27  20 NW9       30.06R
EL CENTRO NAS  CLEAR     58  28  32 W8        30.02R
IMPERIAL       CLEAR     57  34  41 W5        30.01R
BLYTHE         CLEAR     59  27  29 CALM      30.05R
$$

NVZ020-UTZ003-271400-
SOUTHERN NEVADA-UTAH

CITY           SKY/WX    TMP DP  RH WIND       PRES   REMARKS
LAS VEGAS      NOT AVBL
SALT LAKE CITY CLEAR     42  30  62 SE7       30.31F
$$

NMZ009-TXZ055-271400-
NEW MEXICO-WEST TEXAS

CITY           SKY/WX    TMP DP  RH WIND       PRES   REMARKS
ALBUQUERQUE    PTCLDY    47  19  33 W3        30.30R
EL PASO        PTCLDY    47  30  51 S5        30.25R
$$


........................KEY........................
SKY/WX - SKY CONDITION/WEATHER
TMP    - TEMPERATURE IN FAHRENHEIT
DP     - DEW POINT IN FAHRENHEIT
RH     - RELATIVE HUMIDITY IN PERCENT
WIND   - DIRECTION AND SPEED IN MILES PER HOUR (MPH)
VRB    - VARIABLE WIND DIRECTION
PRES   - MEAN SEA LEVEL PRESSURE IN INCHES OF MERCURY
         F - FALLING PRESSURE   R - RISING PRESSURE
         S - STEADY PRESSURE
VSB    - VISIBILITY IN MILES
HX     - HEAT INDEX IN FAHRENHEIT
WCI    - WIND CHILL INDEX IN FAHRENHEIT
TC     - TEMPERATURE IN CELSIUS WHICH IS ALSO KNOWN AS
         TEMPERATURE IN CENTIGRADE
AFB    - AIR FORCE BASE
         LUKE AFB IS LUKE AIR FORCE BASE
         DAVIS-MONTHAN IS DAVIS-MONTHAN AIR FORCE BASE
NAS    - NAVAL AIR STATION
         EL CENTRO NAS IS EL CENTRO NAVAL AIR STATION
N/A    - NOT AVAILABLE




USA.gov is the U.S. government's official web portal to all federal, state and local government web resources and services.